Regional Weather Roundup
Issued by NWS

Home | Current Version | Previous Version | Graphics & Text | Print | Product List | Glossary On
Versions: 1 2 3 4 5 6 7 8 9 10 11 12 13 14 15 16 17 18 19 20 21 22 23 24 25 26 27 28 29 30 31 32 33 34 35 36 37 38 39 40 41 42 43 44 45 46 47 48 49 50
718
ASUS45 KBOU 171007
RWRCO

WEATHER ROUNDUP FOR COLORADO
NATIONAL WEATHER SERVICE DENVER/BOULDER CO
300 AM MST TUE JAN 17 2017

NOTE: "FAIR" INDICATES FEW OR NO CLOUDS BELOW 12000 FEET WITH NO
SIGNIFICANT WEATHER AND/OR OBSTRUCTIONS TO VISIBILITY.

COZ001>005-013-030-031-171100-
...NORTHWEST COLORADO...

CITY           SKY/WX    TMP DP  RH WIND       PRES   REMARKS
CRAIG          CLOUDY    15  12  88 SW5       30.21R WCI   8
HAYDEN         CLOUDY    16  10  79 SW3       30.17S
MEEKER         CLOUDY    16  11  80 SW6       30.18R WCI   7
MOUNT WERNER   NOT AVBL
STEAMBOAT SPGS CLOUDY    16  15  95 CALM      30.16S
WALDEN           N/A    N/A N/A N/A CALM      30.13R VSB 1/4
$$

COZ006>008-011-171100-
...WEST CENTRAL VALLEYS...

CITY           SKY/WX    TMP DP  RH WIND       PRES   REMARKS
GRAND JUNCTION FAIR      25  21  85 CALM      30.16S
MONTROSE       CLOUDY    32  26  78 SE5       30.16S WCI  27
EAGLE          CLOUDY    26  22  84 CALM      30.17R
RIFLE          FAIR      19  15  84 CALM      30.18S
DELTA          CLOUDY    35  27  71 E3        30.16F
NUCLA          CLOUDY    30  27  86 CALM      30.17R
$$

COZ017>023-064>068-171100-
...SOUTHWEST COLORADO...

CITY           SKY/WX    TMP DP  RH WIND       PRES   REMARKS
DURANGO        CLOUDY    31  29  92 CALM      30.10S FOG
CORTEZ         CLOUDY    35  33  92 CALM      30.10S
PAGOSA SPRINGS CLOUDY    32  32 100 CALM      30.11S
TELLURIDE      CLOUDY    23  22  96 CALM      30.11R FOG
WOLF CREEK PAS CLOUDY    18  18 100 SW9       30.15S WCI   6
$$

COZ009-010-012-014-032>034-037-058>063-171100-
...CENTRAL COLORADO...

CITY           SKY/WX    TMP DP  RH WIND       PRES   REMARKS
ASPEN          FAIR      20  17  88 SW6       30.10R WCI  12
BUENA VISTA    CLOUDY    26  24  89 SW3       30.09F
COPPER MTN     FAIR      25  18  74 CALM      30.10S
BERTHOUD PASS  NOT AVBL
COTTONWOOD PAS CLOUDY   N/A N/A N/A CALM      30.08S
GUNNISON       FLURRIES  23  22  96 CALM      30.12R
KREMMLING      CLOUDY    18  12  79 CALM      30.17R
LEADVILLE      CLOUDY    21  18  88 N5        30.08S WCI  15
MONARCH PASS     N/A     19  18  93 MISG      30.19S
SALIDA         CLOUDY    29  28  96 CALM      30.17F
SUNLIGHT       FAIR      19  18  93 S7        30.14R FOG     WCI  10
WILKERSON PASS FAIR     N/A N/A N/A W8        30.09S
$$

COZ069>075-171100-
...SAN LUIS VALLEY/SANGRE DE CRISTO MOUNTAINS...

CITY           SKY/WX    TMP DP  RH WIND       PRES   REMARKS
ALAMOSA        LGT SNOW  26  25  96 SW5       30.10R FOG     WCI  20
LA VETA PASS   LGT SNOW  21  19  93 NE17G26   30.06F WCI   7
SAGUACHE       FLURRIES  28  28 100 CALM      30.11R
$$

COZ035-036-038>040-171100-
...NORTHERN COLORADO FRONT RANGE...

CITY           SKY/WX    TMP DP  RH WIND       PRES   REMARKS
DENVER INTL AP FAIR      21  14  74 SW7       30.06F WCI  12
DMNS CITY PARK   N/A     24  22  91 SE8       30.07F WCI  15
AURORA         CLEAR     21  17  84 S9        30.07S WCI  10
FRONT RANGE AP FAIR      23  18  80 S6        30.07F WCI  16
ERIE MUNI ARPT FAIR      16  15  95 CALM      30.08F
BOULDER MUN AP FAIR      28  27  93 S5        30.07F WCI  23
CENTENNIAL     FAIR      21  18  88 CALM      30.06S
BROOMFIELD     FAIR      28  25  86 NW12      30.06F WCI  18
FORT COLLINS   FAIR      23  19  86 NE5       30.08F WCI  17
LONGMONT       FAIR      21  19  92 SW3       30.10F
$$

COZ041-046-047-076>085-087-088-171100-
...PIKES PEAK/PALMER DIVIDE AND SOUTHERN FOOTHILLS...

CITY           SKY/WX    TMP DP  RH WIND       PRES   REMARKS
COLO. SPRINGS  FOG       30  28  92 SE9       30.09F VSB 1/4 WCI  22
A. F. ACADEMY  CLOUDY    26  23  90 E3        30.07F
SCHRIEVER AFB  NOT AVBL
ELLICOTT       FRZ RAIN N/A N/A N/A W7        30.08F
FALCON         FOG       28  28 100 S7        30.08F VSB<1/4 WCI  20
FORT CARSON    MOCLDY    30  28  93 SW2       30.10F
LIMON          FAIR      15  13  91 N3        30.09F
MONUMENT HILL  FAIR      21  19  93 SW8       30.07F FOG     WCI  12
TRINIDAD       FOG       25  23  92 CALM      30.11F VSB 1/4
$$

COZ042>045-048>051-090-091-171100-
...NORTHEAST COLORADO...

CITY           SKY/WX    TMP DP  RH WIND       PRES   REMARKS
GREELEY ARPT   FAIR      18  15  88 N3        30.09F
AKRON          FAIR      20  12  71 W9        30.07F WCI   9
BURLINGTON     FAIR      25  21  85 W8        30.10S WCI  16
WRAY           NOT AVBL
STERLING       FAIR      18  14  86 SW7       30.08F WCI   8
HOLYOKE        FAIR      23  14  68 W14       30.08F WCI  11
FORT MORGAN    FAIR      22  15  71 W8        30.09F WCI  13
$$

COZ086-089-092>099-171100-
...SOUTHEAST COLORADO...

CITY           SKY/WX    TMP DP  RH WIND       PRES   REMARKS
PUEBLO         CLOUDY    34  31  88 CALM      30.12F
LA JUNTA       CLOUDY    33  31  92 SW8       30.13F WCI  26
LAMAR          CLOUDY    33  31  92 W9        30.12F WCI  25
SPRINGFIELD      N/A     31  30  96 NW13      30.12R WCI  21
$$




USA.gov is the U.S. government's official web portal to all federal, state and local government web resources and services.